Location: Calvatone
(45.1167°N, 10.4333°E)
Time: 15:19:43
(UTC+00:00)

CZ-4B R/B - Pass Details

Date: 28 January 2023
Orbit: 809 x 881 km, 99.0° (Epoch: 29 March)

Event Time Altitude Azimuth Distance (km) Brightness Sun altitude
Rises 17:28:21 0° 142° (SE) 3,321 6.0 -12.2°
Reaches altitude 10° 17:30:46 10° 135° (SE) 2,399 5.3 -12.7°
Maximum altitude 17:35:41 41° 67° (ENE) 1,187 3.5 -13.5°
Drops below altitude 10° 17:40:42 10° 359° (N) 2,448 5.5 -14.4°
Sets 17:43:12 0° 352° (N) 3,397 6.3 -14.8°
